TimeCEST,TemperatureF,Dew PointF,Humidity,Sea Level PressureIn,VisibilityMPH,Wind Direction,Wind SpeedMPH,Gust SpeedMPH,PrecipitationIn,Events,Conditions,WindDirDegrees,DateUTC
12:00 AM,75.2,59.0,57,30.04,-9999.0,NNW,5.8,-,N/A,,Clear,330,2013-08-16 22:00:00
12:30 AM,75.2,59.0,57,30.04,-9999.0,NNW,8.1,-,N/A,,Clear,330,2013-08-16 22:30:00
1:00 AM,73.4,59.0,61,30.04,-9999.0,NNW,6.9,-,N/A,,Clear,330,2013-08-16 23:00:00
1:30 AM,73.4,59.0,61,30.04,-9999.0,NNW,8.1,-,N/A,,Clear,330,2013-08-16 23:30:00
2:00 AM,73,59,53,30.04,25,NNW,6.9,,,,Clear,330,2013-08-17 00:00:00
2:00 AM,73.4,59.0,61,30.04,-9999.0,NNW,8.1,-,N/A,,Clear,330,2013-08-17 00:00:00
2:30 AM,73.4,59.0,61,30.04,-9999.0,NNW,8.1,-,N/A,,Clear,330,2013-08-17 00:30:00
3:30 AM,73.4,59.0,61,30.01,-9999.0,NNW,9.2,-,N/A,,Clear,340,2013-08-17 01:30:00
4:08 AM,71.6,59.0,64,30.01,-9999.0,NNW,9.2,-,N/A,,Clear,340,2013-08-17 02:08:00
4:30 AM,71.6,59.0,64,30.01,-9999.0,NNW,9.2,-,N/A,,Clear,340,2013-08-17 02:30:00
5:00 AM,71.6,59.0,64,30.01,-9999.0,NNW,10.4,-,N/A,,Clear,330,2013-08-17 03:00:00
6:00 AM,71.6,59.0,64,30.01,-9999.0,NNW,8.1,-,N/A,,Clear,330,2013-08-17 04:00:00
6:30 AM,71.6,59.0,64,30.01,-9999.0,NNW,9.2,-,N/A,,Clear,330,2013-08-17 04:30:00
7:30 AM,73.4,59.0,61,30.01,-9999.0,NNW,10.4,-,N/A,,Clear,330,2013-08-17 05:30:00
8:00 AM,73,59,53,30.03,25,NNW,8.1,,,,Clear,340,2013-08-17 06:00:00
8:00 AM,73.4,59.0,61,30.01,-9999.0,NNW,9.2,-,N/A,,Clear,340,2013-08-17 06:00:00
8:30 AM,75.2,59.0,57,30.04,-9999.0,NNW,6.9,-,N/A,,Clear,330,2013-08-17 06:30:00
9:00 AM,77.0,59.0,54,30.04,6.2,NNW,4.6,-,N/A,,Partly Cloudy,340,2013-08-17 07:00:00
9:30 AM,80.6,64.4,58,30.04,6.2,ENE,3.5,-,N/A,,Partly Cloudy,60,2013-08-17 07:30:00
10:00 AM,80.6,64.4,58,30.04,6.2,Variable,3.5,-,N/A,,Partly Cloudy,0,2013-08-17 08:00:00
10:30 AM,80.6,64.4,58,30.04,6.2,ESE,4.6,-,N/A,,Partly Cloudy,110,2013-08-17 08:30:00
11:00 AM,80.6,64.4,58,30.04,6.2,ESE,4.6,-,N/A,,Partly Cloudy,120,2013-08-17 09:00:00
11:30 AM,80.6,64.4,58,30.04,6.2,ESE,4.6,-,N/A,,Partly Cloudy,110,2013-08-17 09:30:00
12:00 PM,80.6,66.2,61,30.04,6.2,South,4.6,-,N/A,,Partly Cloudy,170,2013-08-17 10:00:00
12:30 PM,80.6,66.2,61,30.04,6.2,SSE,4.6,-,N/A,,Partly Cloudy,160,2013-08-17 10:30:00
1:00 PM,80.6,68.0,65,30.04,6.2,South,5.8,-,N/A,,Partly Cloudy,180,2013-08-17 11:00:00
1:30 PM,80.6,68.0,65,30.04,6.2,SSE,4.6,-,N/A,,Partly Cloudy,160,2013-08-17 11:30:00
2:00 PM,81,67,54,30.04,31,ESE,4.6,,,,Scattered Clouds,120,2013-08-17 12:00:00
2:00 PM,80.6,68.0,65,30.04,6.2,SE,4.6,-,N/A,,Partly Cloudy,130,2013-08-17 12:00:00
2:30 PM,80.6,68.0,65,30.04,6.2,ESE,4.6,-,N/A,,Partly Cloudy,120,2013-08-17 12:30:00
3:00 PM,82.4,69.8,66,30.01,6.2,SSE,5.8,-,N/A,,Partly Cloudy,160,2013-08-17 13:00:00
3:30 PM,80.6,68.0,65,30.01,6.2,SE,4.6,-,N/A,,Partly Cloudy,140,2013-08-17 13:30:00
4:00 PM,80.6,68.0,65,30.01,6.2,SE,4.6,-,N/A,,Partly Cloudy,130,2013-08-17 14:00:00
4:30 PM,80.6,68.0,65,30.01,6.2,SSE,4.6,-,N/A,,Partly Cloudy,150,2013-08-17 14:30:00
5:00 PM,80.6,68.0,65,30.01,6.2,SE,3.5,-,N/A,,Partly Cloudy,140,2013-08-17 15:00:00
5:30 PM,80.6,66.2,61,29.98,6.2,South,5.8,-,N/A,,Partly Cloudy,170,2013-08-17 15:30:00
6:00 PM,80.6,66.2,61,29.98,6.2,South,4.6,-,N/A,,Partly Cloudy,170,2013-08-17 16:00:00
6:30 PM,80.6,68.0,65,29.98,6.2,South,4.6,-,N/A,,Partly Cloudy,170,2013-08-17 16:30:00
7:00 PM,80.6,66.2,61,29.98,6.2,South,4.6,-,N/A,,Partly Cloudy,170,2013-08-17 17:00:00
7:30 PM,78.8,68.0,69,29.98,6.2,South,4.6,-,N/A,,Partly Cloudy,170,2013-08-17 17:30:00
8:00 PM,78,68,63,30.00,25,South,2.3,,,,Scattered Clouds,180,2013-08-17 18:00:00
8:00 PM,78.8,68.0,69,29.98,-9999.0,South,2.3,-,N/A,,Clear,170,2013-08-17 18:00:00
8:30 PM,78.8,69.8,74,30.01,-9999.0,South,4.6,-,N/A,,Clear,190,2013-08-17 18:30:00
9:00 PM,78.8,69.8,74,30.01,-9999.0,SSW,5.8,-,N/A,,Clear,200,2013-08-17 19:00:00
9:30 PM,78.8,69.8,74,30.01,-9999.0,SW,3.5,-,N/A,,Clear,220,2013-08-17 19:30:00
10:00 PM,78.8,69.8,74,30.01,6.2,Variable,2.3,-,N/A,,Scattered Clouds,0,2013-08-17 20:00:00
10:30 PM,77.0,69.8,78,30.01,6.2,Calm,Calm,-,N/A,,Scattered Clouds,0,2013-08-17 20:30:00
11:00 PM,77.0,69.8,78,30.01,-9999.0,South,2.3,-,N/A,,Clear,180,2013-08-17 21:00:00
11:30 PM,77.0,69.8,78,30.01,-9999.0,Calm,Calm,-,N/A,,Clear,0,2013-08-17 21:30:00